Wind_Speed
35 36 36 37 38 39 40 41 42 44 45 46 46 47 46 46 45 45 45 46 47 48 48 48 49 49 50 50 51 51 49 48 48 46 42 40 42 42 40 38 36 35 34 32 31 32 34 37 41 43 42 40 38 36 36 36 37 39 38 36 32 28 25 24 24 25 28 29 28 28 28 28 29 29 28 29 30 29 28 28 29 29 30 28 24 21 21 21
34 35 35 36 37 38 39 40 40 42 43 45 46 47 47 47 47 47 46 46 46 47 48 48 48 49 49 49 50 51 50 49 48 45 42 43 46 44 41 39 37 36 35 34 32 31 31 33 35 39 42 42 40 38 37 37 37 38 36 34 28 24 24 26 26 27 29 30 29 29 30 30 31 30 30 31 31 30 28 28 28 28 27 26 22 20 22 21
34 34 34 35 36 37 38 39 40 40 41 43 44 46 47 48 48 48 48 47 46 46 47 48 48 48 48 48 49 49 50 50 49 45 44 46 48 45 41 40 39 37 36 35 33 32 31 30 30 33 38 41 42 41 39 38 37 37 35 32 25 23 26 28 27 29 31 31 31 31 31 32 32 31 32 33 33 31 28 28 28 27 26 25 21 21 23 21
35 35 35 34 35 35 36 37 38 39 40 41 42 44 46 47 48 49 49 49 48 47 46 47 48 48 48 48 48 48 49 50 49 47 46 48 48 46 42 41 40 39 38 37 34 33 31 29 27 28 31 36 40 42 41 39 38 37 35 29 24 25 28 27 28 30 31 32 32 32 33 33 33 32 33 34 33 30 28 28 28 26 26 24 22 22 24 22
37 36 36 35 35 35 35 36 37 38 39 40 41 42 44 46 47 49 50 50 50 49 47 46 46 47 48 48 48 48 48 49 49 48 48 48 48 46 44 43 42 41 40 38 35 34 32 29 27 26 26 29 34 38 40 40 39 38 35 30 26 27 28 28 30 31 32 32 33 33 34 34 34 34 34 36 34 30 29 29 28 27 26 24 24 25 25 24
39 38 37 37 37 36 36 36 36 36 37 39 40 41 42 44 45 47 49 50 51 50 49 48 46 46 47 48 48 48 48 49 49 48 48 49 48 46 45 45 44 42 41 38 36 34 32 30 28 26 24 25 27 30 35 39 41 40 36 32 29 27 27 30 32 32 33 33 34 34 35 35 35 34 35 36 35 31 30 29 28 28 26 25 25 26 26 24
40 40 39 39 38 38 38 37 37 37 37 37 38 39 41 42 44 45 47 49 50 51 51 50 48 46 46 47 48 48 48 47 48 47 48 49 49 47 46 46 45 43 42 39 37 35 33 31 29 27 26 26 24 25 30 35 38 40 37 33 30 28 28 31 33 34 34 34 35 35 36 36 35 34 35 37 35 31 29 29 29 27 27 26 27 28 25 23
42 42 42 41 41 40 40 39 39 38 37 37 37 38 39 41 42 43 45 47 48 50 51 51 50 48 47 46 46 48 47 47 47 47 47 49 49 48 47 46 45 45 43 41 39 38 36 33 31 29 28 26 25 24 27 29 31 35 36 34 31 29 29 32 33 34 34 34 35 35 36 37 35 35 36 37 35 30 28 29 29 28 27 26 27 27 24 22
43 43 43 43 43 42 42 41 41 40 39 38 37 37 38 39 40 42 43 45 46 48 50 51 51 50 49 47 46 45 45 46 48 48 48 48 49 49 49 47 46 45 45 43 42 40 38 35 33 31 30 29 27 27 28 27 26 28 33 34 33 30 30 33 33 33 34 34 35 35 37 37 35 35 37 37 34 30 28 28 29 29 27 26 26 25 22 21
44 44 44 45 45 44 44 43 43 42 41 40 38 37 37 38 39 40 41 43 44 46 48 50 51 51 51 49 47 44 42 46 49 48 48 48 49 50 50 49 47 46 46 45 43 41 38 36 35 34 33 32 30 30 29 27 24 25 30 34 35 33 33 36 35 35 35 35 35 35 37 37 34 35 37 36 33 31 30 29 29 28 26 25 24 23 22 21
46 45 45 45 45 45 45 44 44 43 42 41 40 38 38 38 38 39 40 40 41 43 45 47 49 51 51 51 48 43 40 46 48 48 48 48 48 49 49 49 48 46 46 46 44 42 40 38 38 37 35 34 32 31 30 28 26 25 27 30 34 37 37 38 37 36 37 36 35 35 36 36 34 35 37 34 32 31 30 30 29 28 27 26 23 22 23 23
46 46 45 45 45 45 45 45 45 44 43 42 41 40 39 38 38 38 39 39 39 40 42 45 48 49 51 52 48 42 42 47 48 48 48 48 48 48 49 49 48 47 46 46 44 43 42 41 40 39 37 35 33 33 32 30 27 26 26 26 31 37 40 40 39 38 39 38 36 35 35 34 32 33 34 32 31 30 29 29 29 28 27 26 24 23 24 24
45 45 46 45 45 45 45 45 45 44 44 43 42 41 40 39 38 37 38 38 38 39 40 42 45 47 50 49 45 43 46 48 48 47 47 47 47 47 48 48 48 48 47 46 44 44 44 43 42 40 38 37 36 36 34 31 29 27 27 26 28 34 39 41 40 40 41 40 38 37 34 33 31 30 30 30 28 28 28 28 29 28 27 27 25 24 24 23
44 44 45 45 45 45 45 44 44 44 43 43 42 41 40 39 39 38 37 38 38 38 39 40 42 45 48 45 42 46 49 48 47 45 44 45 45 46 47 47 48 48 47 47 45 44 45 45 44 42 40 39 38 37 35 33 31 30 28 27 27 30 34 39 40 41 41 41 41 39 35 32 30 27 27 28 26 27 28 28 29 29 28 27 26 24 23 22
43 43 43 44 45 46 46 45 44 44 44 43 43 42 41 40 40 39 38 38 38 39 39 39 40 43 45 41 41 48 49 48 47 43 42 43 43 45 46 47 47 48 48 47 47 46 45 46 46 44 42 41 40 39 38 36 34 32 31 29 28 28 30 35 38 40 41 41 40 39 35 31 28 26 27 28 26 27 28 28 29 30 29 28 26 25 24 23
43 43 43 44 45 47 47 47 46 45 44 44 43 43 43 42 41 40 40 39 39 39 39 40 40 41 41 38 40 47 48 47 47 45 44 43 43 44 45 46 46 47 47 47 48 48 46 47 47 46 44 43 42 41 39 38 36 35 33 31 29 28 29 32 35 37 39 39 38 37 34 29 26 26 28 30 28 27 28 29 30 30 30 29 27 26 25 25
47 46 45 45 45 46 48 48 47 45 44 44 43 42 43 43 42 42 41 40 39 39 39 40 39 40 39 37 39 45 47 48 48 48 48 45 43 45 46 46 46 47 47 48 48 49 49 49 48 48 47 45 44 43 42 41 38 37 35 33 31 29 28 30 32 34 36 37 36 34 30 26 25 27 30 31 29 28 27 29 30 31 31 30 29 28 27 26
51 50 49 48 47 47 48 48 48 47 45 44 43 42 42 42 42 43 43 42 41 40 40 40 39 40 38 37 40 43 45 48 49 50 49 46 44 46 47 47 48 47 47 49 50 50 50 51 50 49 48 47 46 45 44 41 38 37 36 34 31 29 28 29 30 32 34 34 34 31 25 23 23 28 32 31 27 26 26 28 30 30 30 31 31 30 27 26
52 52 52 50 48 47 48 49 49 48 47 45 44 44 43 42 42 43 44 43 42 40 40 40 40 40 39 38 40 40 41 45 48 50 49 47 45 46 47 48 49 49 49 50 50 51 51 52 53 52 50 48 47 45 43 39 38 38 37 35 33 30 29 29 29 30 31 32 32 28 21 19 23 29 33 31 26 24 25 28 31 30 29 30 30 29 26 25
53 53 53 52 50 49 48 49 49 49 48 47 46 45 44 43 43 43 43 43 42 41 41 40 40 40 38 39 39 38 38 41 45 49 49 47 45 46 46 47 49 50 50 49 50 51 51 52 53 51 49 47 46 45 43 41 40 40 38 36 34 32 30 28 29 29 30 31 31 27 23 24 28 32 33 30 27 26 26 29 30 29 28 29 28 27 25 24
55 55 55 54 53 51 50 50 49 48 48 48 47 46 45 44 43 43 43 43 43 43 42 41 40 39 38 39 40 39 39 39 41 46 49 48 46 46 46 47 48 49 50 50 50 51 52 52 50 50 48 47 46 45 44 42 41 41 39 37 35 33 31 29 28 29 31 32 30 27 27 30 32 32 32 31 30 27 26 28 28 28 27 28 28 26 23 22
56 56 56 56 55 53 52 51 50 48 48 48 48 47 46 45 44 43 42 43 43 43 43 42 41 39 37 39 40 40 40 39 40 43 47 48 47 46 46 46 47 48 49 50 51 51 51 50 49 49 49 47 46 46 44 42 42 42 40 38 35 33 31 29 28 28 32 33 28 26 28 30 31 32 33 32 31 28 27 27 27 27 28 28 27 23 20 20
59 58 58 57 56 55 53 52 50 49 48 49 48 47 46 45 44 43 43 44 43 44 44 42 42 38 37 41 42 41 41 40 40 42 44 45 45 46 46 46 46 47 49 50 50 51 50 49 49 50 48 47 47 46 45 44 43 43 42 39 36 33 31 30 29 30 33 32 28 27 29 30 31 33 34 33 32 31 29 29 29 30 31 30 27 21 18 18
61 61 60 59 58 57 55 53 51 49 48 48 47 46 45 44 44 43 44 44 43 44 44 43 42 39 38 42 43 42 42 41 41 42 43 42 42 44 46 45 46 47 47 48 50 50 49 49 49 49 48 48 48 48 47 45 45 44 43 40 36 31 30 29 30 32 33 30 29 31 31 32 34 35 35 35 35 34 32 30 31 32 30 28 27 23 18 20
64 63 62 61 60 59 58 55 53 51 49 47 46 44 42 42 42 43 43 43 42 42 44 43 41 38 38 42 43 42 42 43 43 44 45 42 40 42 45 46 46 46 46 47 49 50 50 50 48 47 47 47 48 48 47 46 45 44 43 39 34 30 29 29 31 33 31 29 31 33 32 33 35 35 36 36 36 34 33 31 30 30 27 25 27 24 21 23
66 65 65 63 62 61 59 57 54 53 50 47 45 43 41 40 41 42 41 42 41 40 43 43 40 39 40 41 42 41 42 42 41 43 44 42 40 39 42 45 46 46 45 46 48 49 49 50 48 47 46 46 47 47 46 45 44 43 41 37 32 29 28 29 31 32 30 29 33 34 33 33 35 35 36 36 35 34 34 32 30 30 28 27 27 26 25 22
66 66 66 65 64 63 60 58 55 53 51 48 46 43 40 40 40 41 40 41 40 39 41 42 40 39 39 39 41 40 39 39 40 42 43 42 41 40 41 43 45 46 45 46 47 47 48 50 49 47 46 46 46 46 45 44 43 42 39 35 32 29 28 28 30 30 29 31 35 36 34 34 35 36 36 36 36 35 34 32 31 30 29 29 29 28 25 20
60 62 63 63 63 62 61 58 55 54 52 48 46 43 40 40 40 40 40 40 39 38 39 41 39 37 38 39 40 39 37 37 39 41 41 40 40 40 41 42 44 45 45 45 46 45 47 50 49 47 46 46 45 45 44 43 43 40 36 33 32 30 28 27 29 30 30 34 37 38 36 35 36 36 36 37 37 36 34 32 30 30 29 30 31 30 24 17
51 52 54 56 57 58 58 56 54 54 51 47 44 42 40 41 40 40 39 37 36 36 37 39 38 37 37 38 39 39 38 38 39 39 39 39 39 40 40 41 42 43 43 43 44 44 45 47 48 47 46 46 44 43 42 43 42 38 34 33 32 32 31 31 33 33 35 37 38 38 38 37 38 37 37 39 38 36 34 31 29 30 30 31 31 28 22 15
42 42 44 47 49 51 53 52 52 53 48 44 42 40 39 40 39 39 38 35 34 34 35 37 37 36 37 38 38 38 39 40 41 41 40 39 39 39 40 40 40 41 42 43 44 43 43 45 46 46 46 45 43 42 41 42 40 36 33 33 33 34 35 36 37 37 38 39 37 39 40 39 39 39 39 39 37 36 34 31 30 31 32 30 28 26 21 14
34 34 35 38 40 44 45 46 49 49 45 41 40 38 38 39 39 38 36 33 33 33 33 35 35 35 38 38 36 37 40 42 42 42 42 41 41 41 42 42 43 43 44 46 46 44 44 45 44 43 45 45 43 40 40 41 38 34 34 35 35 36 38 41 40 40 42 40 37 41 42 41 40 39 39 38 37 36 34 31 28 28 28 26 24 26 22 15
26 26 27 30 32 34 37 41 44 43 41 40 38 37 37 39 38 35 33 32 32 31 32 33 34 34 37 38 37 35 37 40 42 42 42 42 42 43 44 45 46 47 48 48 48 47 46 46 44 44 46 46 44 42 42 42 38 36 37 38 38 39 41 44 44 43 44 40 38 42 43 42 41 39 37 37 37 36 34 31 28 26 26 24 22 25 22 15
19 19 22 25 26 27 29 35 39 38 38 39 38 37 38 37 33 31 30 30 30 31 30 31 32 33 35 37 38 37 36 37 39 40 40 41 41 41 42 44 45 45 46 48 51 50 48 47 47 47 47 46 45 44 44 44 42 41 43 42 42 43 45 47 47 46 45 40 40 42 44 44 42 38 37 37 37 36 34 33 31 29 30 27 23 23 20 16
15 15 18 21 24 26 24 28 35 36 37 38 36 37 39 34 29 29 29 28 29 30 29 29 30 30 31 34 37 38 37 36 37 38 39 40 40 41 42 44 44 44 44 46 49 50 50 50 50 49 47 46 46 45 44 43 42 43 45 44 45 44 45 47 47 47 46 42 41 43 44 44 42 38 37 36 36 37 38 38 38 37 37 33 27 25 22 19
13 12 16 20 22 24 21 24 32 36 36 36 36 38 36 30 28 29 28 28 29 29 28 28 28 29 30 32 35 36 36 35 37 37 38 38 39 40 42 44 46 46 46 47 48 48 49 49 48 47 46 45 46 46 44 43 42 43 45 46 46 44 44 47 47 47 45 41 42 45 45 43 41 38 37 37 38 39 39 41 43 42 39 35 29 26 24 21
8 8 14 19 23 23 21 25 32 36 36 36 37 36 31 29 30 29 28 28 29 28 26 26 27 28 30 32 35 37 37 36 37 37 37 38 38 39 41 43 44 45 46 47 47 48 49 48 46 46 45 45 46 46 46 45 44 45 47 47 45 43 45 47 47 46 44 40 41 45 45 43 41 39 38 38 39 37 34 37 43 42 37 32 28 26 24 22
7 14 17 18 22 22 22 26 33 36 38 38 36 32 31 32 31 30 29 27 28 28 27 26 27 27 29 31 34 36 38 38 38 38 38 38 38 38 40 42 42 43 44 44 46 47 47 47 46 46 44 43 45 45 45 45 44 44 46 47 44 44 46 47 47 47 45 41 42 44 44 43 41 39 39 39 39 37 32 31 35 36 34 30 27 26 25 23
17 20 17 12 14 17 20 26 34 37 39 40 36 34 35 35 33 33 31 26 27 29 27 26 25 26 28 31 34 36 38 39 39 39 38 38 37 38 40 41 42 42 43 44 46 47 47 46 46 46 44 42 44 46 46 46 44 43 45 46 45 45 46 47 49 50 47 44 43 43 43 43 42 39 38 36 36 34 33 31 30 29 31 31 27 26 26 24
16 15 12 8 8 12 18 27 35 38 40 39 37 38 39 38 36 35 31 26 27 27 26 26 25 25 28 31 33 35 37 38 38 38 38 38 37 38 39 41 42 43 44 45 46 48 48 47 45 45 44 42 44 47 48 48 46 45 46 45 44 44 45 46 49 50 48 46 45 44 44 43 41 39 37 35 34 33 33 33 30 27 28 30 27 25 26 25
10 10 9 7 7 10 18 28 34 38 39 37 37 41 41 40 40 38 30 26 28 27 26 27 26 26 27 30 32 34 36 37 37 37 37 37 37 37 38 40 42 43 44 45 46 48 49 47 44 44 43 44 45 46 47 48 48 48 49 47 46 46 46 47 49 50 48 47 47 46 44 42 40 39 37 36 35 36 35 33 32 29 27 28 27 24 25 26
8 7 4 3 6 11 19 27 32 36 37 36 38 42 43 43 44 38 28 27 30 29 27 27 25 23 24 27 32 34 36 38 37 37 37 37 36 35 36 39 41 43 45 45 46 48 48 46 43 42 43 44 45 44 43 45 45 46 47 48 47 47 48 49 50 51 50 49 49 48 46 42 40 39 39 38 37 38 37 35 33 30 28 29 30 28 27 27
13 7 4 4 8 14 20 26 30 35 35 35 39 44 45 46 44 33 25 28 32 29 27 27 24 22 21 24 30 33 36 38 38 38 37 35 33 32 33 36 39 42 44 45 45 46 46 44 42 41 42 43 42 42 42 42 42 44 45 45 46 47 48 48 49 51 51 50 49 49 47 44 43 41 40 39 39 39 39 36 33 32 31 31 32 32 31 28
20 15 10 10 11 16 22 26 29 32 34 36 42 46 48 47 39 28 26 31 33 30 29 29 26 23 21 22 25 30 35 37 37 38 35 32 30 28 29 33 36 41 43 42 43 44 44 43 41 40 41 41 40 40 40 40 42 44 44 44 45 47 46 46 46 48 50 51 49 49 48 46 44 42 41 41 41 40 40 38 35 34 33 32 30 29 29 27
22 19 16 15 16 21 24 25 26 30 35 40 44 48 49 42 31 27 29 30 29 30 31 30 28 25 23 22 21 25 32 35 35 35 32 28 27 28 30 33 36 40 43 42 41 42 43 43 42 40 40 40 40 41 41 42 42 43 42 42 43 45 46 45 46 46 48 50 50 49 48 45 43 43 43 42 42 41 41 39 37 35 34 35 34 33 31 30
19 19 20 20 21 23 24 26 29 33 37 41 46 49 44 32 26 29 31 26 26 32 32 30 29 27 25 23 20 21 27 31 32 33 31 29 28 30 31 34 37 39 41 40 39 39 40 41 41 40 41 42 41 42 42 42 42 41 41 41 43 45 47 46 46 47 47 49 51 50 48 44 43 43 44 43 43 42 42 40 38 35 32 31 32 32 32 32
17 18 20 21 22 23 25 27 29 32 36 41 48 48 36 25 26 29 28 26 28 34 34 32 31 28 26 25 22 20 22 27 30 31 33 32 31 30 30 33 36 39 40 40 39 39 40 41 41 39 40 41 40 40 41 40 41 42 41 41 42 44 46 47 47 48 48 48 49 51 49 46 43 43 43 43 43 43 42 40 39 37 33 30 28 27 29 30
21 21 21 20 20 20 20 21 24 30 36 42 49 42 27 22 24 26 26 26 28 30 33 34 32 28 28 27 26 23 20 23 28 32 35 35 32 31 30 32 35 38 41 42 41 41 41 42 41 38 39 41 40 39 39 38 40 40 39 39 40 42 45 47 48 48 48 48 48 49 50 49 47 46 44 43 43 42 41 39 38 38 36 35 34 33 32 32
25 23 21 19 18 17 18 20 24 30 36 41 42 32 21 21 23 25 27 27 27 28 29 31 32 30 29 28 28 26 23 22 28 35 37 36 33 31 30 31 36 40 43 44 43 42 42 44 43 39 37 40 40 38 37 36 36 38 37 36 38 41 44 46 47 47 48 48 48 48 48 49 48 47 45 43 42 40 39 37 37 37 37 37 36 35 33 32
25 24 22 21 19 18 20 22 24 28 32 34 30 22 19 21 22 24 27 27 28 29 27 29 32 29 27 27 26 26 25 23 30 38 39 36 34 32 29 30 35 41 45 46 45 44 44 46 46 42 37 37 38 37 36 36 37 38 38 38 39 41 43 44 45 47 47 47 47 47 46 46 45 43 42 41 42 41 40 39 38 37 37 36 34 33 32 33
25 25 24 22 20 19 21 24 25 27 28 26 22 21 20 20 21 22 23 24 26 28 26 28 31 29 26 25 23 25 26 25 30 38 39 36 35 32 30 30 33 40 47 49 48 46 44 45 48 45 38 35 36 36 37 39 40 40 41 41 41 42 44 45 46 47 48 48 48 48 47 45 42 40 38 38 40 42 43 42 40 38 36 36 35 36 37 38
24 23 22 20 21 23 24 24 24 23 22 22 22 22 20 19 20 20 20 20 21 25 25 25 27 27 25 23 22 24 26 25 30 37 38 35 34 32 31 30 33 41 49 51 49 46 44 44 47 46 40 37 36 36 38 40 41 41 41 41 42 43 45 47 47 47 47 47 49 50 49 46 40 36 35 35 37 39 40 41 41 39 38 39 39 39 37 35
24 23 22 22 24 24 23 22 22 22 21 21 20 18 17 18 18 17 17 17 17 20 24 23 24 23 22 22 23 25 25 25 29 36 37 35 33 32 31 31 35 43 49 51 49 46 45 45 47 46 43 39 38 37 38 40 41 41 41 41 43 44 45 47 47 46 45 45 48 50 48 45 40 35 34 34 35 36 36 37 38 37 37 38 38 36 33 32
Wind_Direction
271 270 268 267 265 264 261 259 257 255 254 253 253 252 252 252 252 252 250 249 247 246 245 244 244 244 243 242 242 241 241 241 240 240 238 238 239 238 238 238 238 239 240 240 241 241 240 238 237 236 236 236 236 235 235 236 238 241 242 242 242 241 240 235 232 232 235 236 235 236 238 239 239 235 232 233 232 231 232 232 231 235 240 243 245 251 256 265
273 272 270 269 267 265 264 262 260 257 255 254 253 252 251 250 250 251 251 250 248 247 245 244 243 243 243 242 242 241 240 240 240 239 236 236 238 237 237 237 237 237 238 238 238 239 239 238 237 236 235 234 234 234 234 234 236 239 240 240 239 235 233 229 225 226 230 233 233 234 235 237 238 237 234 231 230 230 228 229 232 233 239 245 248 252 259 265
273 273 272 271 269 267 266 263 262 260 257 255 254 253 252 250 249 249 249 249 248 247 246 244 243 242 242 241 241 240 240 239 239 237 234 236 238 237 236 237 237 236 237 237 236 237 238 238 238 237 235 234 234 234 234 234 235 237 237 237 234 227 228 228 223 222 227 230 231 232 234 235 237 237 235 232 231 232 230 230 233 232 235 244 248 252 261 265
272 272 272 272 271 269 268 266 263 261 259 257 256 254 252 251 250 249 248 247 247 247 246 245 243 242 241 241 240 239 239 239 238 236 235 237 238 237 235 236 236 235 235 235 235 236 236 237 236 236 236 235 234 234 234 234 234 235 235 233 227 223 225 225 221 222 225 227 229 231 233 235 237 237 238 237 233 232 233 234 235 233 235 241 246 250 257 259
270 270 270 270 270 269 268 267 266 264 261 259 257 255 254 252 250 249 248 247 246 245 245 245 244 242 241 240 239 239 238 238 237 235 236 237 237 236 234 235 235 234 234 234 234 234 234 234 233 233 233 234 234 235 234 234 234 234 233 229 224 222 222 221 221 222 223 224 227 229 231 234 236 236 238 239 234 230 233 236 238 239 240 242 245 249 252 253
270 269 268 268 268 268 268 268 267 266 264 261 259 257 255 253 251 249 248 247 246 245 244 244 243 243 241 240 239 238 237 237 236 235 235 236 237 236 234 233 234 234 234 233 233 233 232 232 231 230 230 230 232 232 232 232 233 232 230 227 224 221 221 222 222 220 221 223 225 227 230 233 235 236 238 240 236 232 234 238 240 244 245 246 248 249 252 253
269 268 267 266 266 266 267 267 267 266 266 264 261 258 256 254 252 250 248 246 246 245 244 243 242 242 242 240 239 238 237 237 236 235 233 235 236 235 233 232 232 233 233 232 231 231 230 230 229 228 227 227 228 228 228 230 231 230 227 224 222 218 219 223 224 223 222 222 224 226 228 232 234 236 238 240 239 236 235 239 242 244 247 249 251 252 252 251
268 267 266 265 264 265 265 266 266 266 266 265 264 261 258 255 253 252 249 247 245 245 244 243 241 241 241 240 239 238 237 236 236 234 232 233 234 234 233 232 230 231 231 231 230 229 228 227 226 226 225 225 225 224 226 228 228 227 224 222 221 217 218 223 225 226 225 224 225 225 226 230 232 234 237 239 241 240 236 238 240 243 246 248 250 252 250 245
268 266 266 265 264 264 264 264 264 265 265 265 264 263 261 258 255 253 250 248 246 244 244 243 242 240 240 239 239 238 236 236 236 234 232 231 232 233 233 232 230 229 230 230 229 228 227 225 225 225 224 223 222 221 225 226 225 224 220 219 218 215 217 222 224 225 226 226 226 225 225 228 231 233 235 238 242 241 236 234 236 239 242 245 247 249 246 241
268 266 265 264 264 263 263 264 263 263 263 263 263 262 261 259 257 254 252 250 247 245 244 243 242 241 239 238 238 237 235 235 236 234 232 230 230 232 232 232 230 229 229 229 228 228 226 224 223 223 222 222 221 221 224 225 223 221 219 217 214 212 215 221 222 224 225 225 226 226 225 227 230 232 234 237 240 241 238 235 236 238 241 243 245 247 244 238
270 267 265 264 264 263 263 263 263 262 261 260 261 261 261 260 258 256 254 251 248 246 244 243 242 241 239 237 236 236 235 235 235 233 232 231 230 231 231 231 230 229 228 228 228 226 224 222 222 222 221 221 220 222 224 224 222 220 220 218 213 211 215 221 222 223 226 225 225 226 227 228 229 231 233 236 239 240 240 238 238 240 243 244 243 245 244 239
270 268 267 265 264 263 263 263 262 262 260 258 258 259 259 259 258 257 255 253 250 247 245 243 241 240 239 237 236 236 234 234 234 232 232 230 229 229 230 230 229 228 227 228 228 227 224 222 222 221 220 220 220 222 224 223 222 220 221 220 214 212 215 220 223 224 227 228 226 226 227 230 230 232 235 238 240 241 243 243 241 240 243 247 246 244 245 243
271 269 268 266 265 263 262 262 262 261 260 258 256 256 257 258 257 257 256 254 252 249 246 243 241 239 238 236 236 236 234 234 234 232 232 230 229 228 229 229 228 228 226 225 227 228 225 222 222 220 219 219 219 221 223 222 221 221 221 219 216 215 215 219 223 226 229 230 229 227 227 230 231 234 238 240 243 245 246 246 244 241 241 244 247 247 247 247
272 270 268 267 266 265 263 261 260 260 259 258 255 253 254 256 256 256 255 254 252 250 247 244 241 239 236 235 235 235 233 233 233 232 232 231 229 228 228 228 227 226 226 224 223 226 227 224 222 220 218 218 218 220 222 221 221 220 221 219 218 218 216 218 223 227 231 233 233 232 228 228 231 234 240 241 243 245 245 243 243 242 241 241 244 246 247 246
273 271 269 267 266 265 264 262 260 259 259 258 256 253 252 252 254 255 254 253 252 250 248 245 242 239 236 234 235 234 232 232 232 232 231 229 228 227 227 227 226 225 224 223 222 222 224 226 224 221 219 217 218 220 221 221 220 220 221 219 219 220 217 218 222 225 231 235 237 237 232 228 230 234 240 243 242 243 243 241 240 241 241 241 243 245 247 245
274 273 270 268 265 264 264 262 260 259 258 257 256 254 251 250 251 253 253 252 252 250 248 246 243 240 236 235 234 232 231 231 230 229 228 226 225 225 224 225 225 225 223 223 222 221 221 223 224 223 219 217 218 220 221 221 221 222 222 219 219 221 218 219 222 224 229 234 238 240 236 230 231 235 240 243 241 239 241 241 239 239 238 239 241 243 245 246
274 273 271 268 266 264 263 262 260 258 256 256 255 254 252 250 249 250 251 251 251 250 248 246 243 240 237 236 234 231 230 229 228 227 226 224 223 222 221 221 222 222 221 221 222 222 220 221 222 223 221 218 218 220 221 223 224 225 225 221 218 219 219 221 224 225 229 234 237 240 238 230 229 234 238 240 238 235 236 239 240 239 238 238 238 240 243 246
274 272 270 268 265 263 261 260 259 258 255 253 253 253 252 250 248 247 248 249 250 249 248 246 243 240 237 236 234 232 230 228 228 227 225 223 221 220 219 218 219 219 219 220 221 222 221 221 221 222 222 221 220 222 225 228 228 229 230 226 221 219 219 222 225 226 229 233 237 239 235 225 226 235 238 238 237 234 233 236 239 239 237 237 237 237 240 244
272 270 268 267 265 262 260 259 257 256 255 253 252 251 251 250 248 246 246 246 248 248 247 245 242 240 237 235 235 233 230 229 228 227 226 224 222 221 219 216 217 217 216 217 219 220 221 221 220 221 221 222 223 225 228 229 228 230 231 229 225 220 219 222 226 228 229 232 235 236 230 219 224 233 238 240 239 235 231 232 235 235 234 234 235 236 236 239
271 269 267 266 264 262 260 258 256 255 254 253 251 250 250 249 248 247 245 245 246 247 247 245 242 240 238 235 234 232 229 228 228 227 226 224 222 222 220 218 217 218 216 216 217 219 220 221 222 222 222 223 224 226 227 226 226 229 230 229 226 221 218 219 223 228 230 231 233 232 224 215 219 228 235 239 239 235 231 230 232 233 232 232 232 234 233 234
270 268 267 265 264 262 260 258 256 254 253 252 251 250 249 248 248 247 245 243 243 244 245 245 242 239 237 235 233 230 227 226 226 227 226 223 222 221 221 220 220 220 218 216 215 217 219 221 222 222 221 221 223 225 225 224 225 228 229 229 226 222 217 216 220 225 226 227 228 226 222 217 218 223 230 234 235 234 232 231 231 231 231 229 229 231 231 233
270 268 266 265 264 263 261 259 257 255 253 252 251 250 249 248 247 247 244 242 242 243 243 243 241 237 235 234 231 229 226 224 223 225 225 223 222 221 221 222 223 222 219 216 216 217 220 222 221 220 219 219 221 222 223 223 224 226 228 227 226 222 218 215 216 221 223 222 217 213 215 216 217 221 226 230 232 232 230 229 228 227 227 225 226 228 229 233
269 268 266 265 263 262 260 259 257 256 254 253 252 251 249 248 247 245 243 240 240 241 240 241 240 236 234 233 230 227 226 223 222 223 223 222 221 220 220 221 223 223 220 218 219 219 221 221 220 218 217 217 218 220 220 220 221 224 225 224 223 221 218 215 215 219 222 217 206 201 205 210 214 219 224 225 227 227 225 225 224 223 223 222 222 222 229 236
268 266 264 262 261 259 258 257 255 254 253 252 251 250 249 248 246 244 241 239 238 240 238 237 239 236 232 232 230 226 224 222 221 222 222 221 219 219 218 219 221 224 224 222 220 221 222 222 220 218 216 215 216 218 218 218 219 221 223 222 220 217 217 217 216 219 223 216 203 198 201 206 212 217 221 222 224 224 224 224 224 222 219 217 216 217 228 237
265 262 260 258 257 255 254 253 252 251 250 249 249 248 247 245 243 242 240 237 237 239 237 235 237 235 230 230 230 226 223 222 221 221 220 219 218 217 218 217 218 222 224 223 221 221 222 222 219 217 217 216 217 218 217 217 218 220 221 220 216 214 215 216 216 218 221 213 201 196 198 206 213 217 220 222 224 225 224 224 223 221 219 218 218 218 227 235
263 259 257 255 253 252 251 250 249 248 247 246 246 245 242 241 240 240 239 237 236 237 237 235 234 234 232 230 229 227 223 222 221 221 221 219 216 216 217 217 217 218 221 222 222 222 222 221 218 216 216 216 217 219 218 218 218 219 221 218 212 211 213 216 216 218 218 207 196 195 198 204 213 219 221 223 224 223 225 224 223 223 224 227 226 222 228 234
263 259 256 254 252 250 249 247 247 246 245 243 243 241 238 237 237 237 237 237 236 234 235 236 233 233 232 228 226 225 222 220 220 221 222 220 218 215 215 216 216 216 217 219 221 222 222 221 218 214 213 214 216 218 218 218 218 219 219 215 211 207 209 214 216 218 216 201 194 197 198 201 211 218 221 224 224 223 224 224 223 223 224 228 229 227 228 228
264 260 256 254 251 249 248 246 244 244 242 240 240 238 235 234 234 235 236 237 236 232 233 235 233 232 230 227 224 221 217 216 219 220 220 219 217 215 215 215 215 215 215 217 219 220 220 221 218 214 213 212 214 216 217 219 219 217 214 211 208 202 201 208 214 216 209 199 196 198 200 205 214 219 220 222 224 225 225 223 222 222 223 228 230 229 226 216
266 261 256 252 250 248 246 245 243 241 240 238 237 235 233 232 231 233 234 235 234 231 230 231 230 227 227 225 222 218 211 210 213 215 216 216 215 214 214 215 214 212 213 216 220 220 220 221 219 215 214 213 213 214 215 217 218 213 208 208 204 198 196 201 209 210 203 201 201 198 202 209 217 222 222 223 225 225 225 223 220 222 225 230 232 228 222 212
268 262 255 250 246 244 243 242 240 239 237 236 234 231 230 230 229 230 231 231 230 228 228 228 226 222 222 221 219 216 210 207 209 209 210 212 212 212 212 212 213 211 210 212 216 218 220 220 218 214 214 213 212 212 212 215 216 209 205 205 200 196 196 198 204 204 203 208 205 198 202 209 214 222 225 226 226 225 225 223 220 221 225 231 231 226 225 223
269 261 253 247 242 239 237 236 235 235 233 232 230 227 226 226 226 226 227 225 225 225 224 225 224 219 217 216 212 211 211 208 208 208 208 208 209 209 209 209 210 208 208 210 212 213 215 218 216 213 212 210 208 208 210 213 212 205 201 202 199 196 195 197 200 202 208 211 201 195 201 208 213 220 224 227 227 224 225 226 227 229 230 233 230 227 232 233
269 259 248 239 234 232 230 228 228 227 225 225 223 221 222 223 222 222 221 219 219 220 220 221 221 218 216 213 206 205 210 211 210 210 209 209 209 210 210 211 211 209 208 209 209 209 210 214 213 210 209 207 205 204 206 209 207 200 198 199 198 195 195 198 200 205 212 209 195 194 202 208 216 220 221 224 225 224 224 227 233 237 238 238 232 230 233 231
269 254 239 228 220 218 220 222 219 216 215 217 216 215 217 218 217 216 216 213 213 215 216 215 217 216 215 211 204 200 203 208 210 210 210 210 211 211 211 211 211 212 212 210 208 205 205 210 211 209 208 206 204 203 204 205 202 198 199 200 199 196 197 201 203 207 213 205 193 196 203 210 218 221 221 223 223 223 224 226 231 234 236 237 233 229 229 229
269 248 228 219 209 201 207 215 209 203 206 209 209 211 212 209 206 208 208 205 208 211 212 211 212 212 210 208 205 201 199 202 205 208 209 210 211 211 211 211 210 210 211 211 210 207 205 207 209 209 208 206 204 203 204 205 202 199 199 201 201 199 199 202 204 208 212 204 194 198 204 212 219 222 223 223 221 221 221 222 226 228 229 228 223 223 224 229
267 242 215 206 193 184 196 209 198 194 199 199 201 207 205 196 195 200 198 196 201 204 205 206 207 207 204 202 202 201 198 200 203 205 207 210 212 212 212 212 210 208 208 209 211 210 208 207 208 208 207 205 203 201 202 203 201 199 200 201 202 200 200 201 203 207 211 205 197 201 209 216 221 221 221 222 223 223 223 223 224 225 224 221 219 219 222 229
249 202 185 181 170 172 197 202 189 189 192 190 196 200 191 183 190 192 186 189 196 197 196 199 200 201 198 198 200 198 196 199 202 204 206 208 210 212 212 212 211 210 209 208 208 208 208 207 208 208 205 204 202 200 201 202 200 198 200 203 204 200 199 201 202 206 209 206 203 206 214 220 223 221 217 218 222 224 226 229 227 223 218 218 222 224 224 229
140 140 145 157 163 177 197 192 182 185 185 185 189 185 175 177 183 179 175 182 192 191 188 191 196 196 194 194 197 197 197 199 201 203 206 207 208 209 211 211 211 210 210 209 207 207 207 206 206 206 204 203 202 199 199 202 201 198 200 204 202 197 198 200 201 205 208 208 209 211 217 221 223 222 219 219 222 222 222 228 230 227 221 216 219 225 226 229
109 119 124 144 169 185 192 184 181 182 181 182 178 168 169 175 174 169 167 175 189 188 183 187 193 194 193 193 194 196 199 200 201 203 204 206 207 207 209 210 210 208 207 207 206 205 205 206 206 205 201 200 202 199 197 200 200 198 200 203 200 198 200 201 201 205 208 209 211 214 217 220 222 224 224 226 230 227 223 224 229 235 234 225 219 223 226 229
106 117 125 151 180 192 190 181 179 180 179 178 170 163 168 169 164 163 164 171 185 184 179 185 190 193 195 194 194 197 200 201 202 203 203 204 204 204 206 209 210 207 204 204 204 203 203 204 205 204 200 198 201 201 199 199 197 197 199 200 199 201 203 203 204 207 209 211 214 215 218 221 223 225 226 229 232 229 227 229 232 240 244 233 224 225 228 232
114 130 140 169 195 202 190 180 177 179 177 172 165 163 165 161 159 163 162 166 177 176 173 180 186 192 196 194 195 198 199 200 201 202 202 202 201 200 202 207 210 206 202 202 204 203 202 201 202 203 200 198 200 202 202 201 198 197 198 197 197 201 203 204 206 208 209 212 215 218 221 223 225 227 227 228 228 225 227 233 238 244 245 237 231 230 232 234
102 127 141 194 204 192 182 176 175 176 174 166 162 162 162 159 160 162 158 160 170 171 172 179 183 187 192 193 196 198 198 198 198 199 201 200 197 197 199 204 208 205 200 199 202 203 201 199 199 202 200 200 202 202 202 202 200 200 200 196 195 199 202 204 206 208 210 213 215 219 223 224 225 227 228 227 227 227 229 235 241 243 242 241 240 237 234 235
64 70 90 140 165 170 169 169 170 170 168 160 158 161 161 158 160 159 152 159 169 171 175 182 182 180 186 192 197 198 198 198 196 194 197 197 193 192 196 202 206 203 199 198 201 203 200 196 197 201 200 199 202 201 199 199 200 201 201 197 195 199 202 205 208 209 211 214 216 218 222 223 223 226 228 228 228 230 233 237 240 241 240 242 243 239 235 234
46 49 78 112 134 150 156 158 160 162 159 155 159 162 159 157 157 153 151 160 168 173 181 187 182 177 182 188 194 198 198 197 195 191 190 189 184 185 193 201 205 202 197 196 199 201 197 193 194 198 198 197 199 199 196 195 196 198 200 198 197 199 203 206 210 212 213 215 218 220 222 224 223 224 227 229 230 232 235 239 242 244 243 241 242 241 239 239
48 55 74 97 120 137 143 145 147 151 153 156 161 160 155 152 149 147 153 159 165 175 185 189 183 176 177 181 186 195 197 196 192 187 181 175 173 181 190 196 202 201 196 193 195 199 196 191 191 194 194 194 196 196 194 194 196 198 199 199 198 200 202 205 209 213 215 216 219 221 223 224 224 224 226 228 231 234 237 241 245 247 245 241 240 243 245 246
62 69 74 86 110 127 134 137 141 146 152 158 160 156 150 143 137 144 155 158 165 178 187 188 183 175 171 173 179 190 196 195 190 180 168 163 169 179 187 192 198 199 195 190 191 195 195 190 189 192 194 193 195 197 196 197 199 200 199 198 198 200 202 204 208 213 215 217 219 222 223 224 225 226 228 230 232 235 239 243 246 243 240 238 238 240 244 246
75 80 81 88 104 115 125 133 139 146 154 157 157 153 145 134 132 142 155 162 170 183 189 188 184 177 169 168 173 183 192 194 188 173 161 163 169 172 179 188 195 195 190 186 187 190 192 189 187 193 197 196 196 200 199 198 199 200 198 196 197 199 202 204 207 212 215 217 219 222 224 226 227 229 231 234 237 239 241 243 243 241 239 240 241 243 246 248
76 80 86 93 101 107 116 126 137 149 156 158 157 153 138 128 134 142 154 164 171 181 189 190 186 179 171 165 169 182 191 188 182 170 163 167 170 169 174 182 188 191 186 182 184 187 188 187 186 190 196 196 195 198 199 198 200 201 198 195 196 199 202 205 207 210 214 216 219 222 225 227 230 232 234 237 240 241 240 239 239 240 241 242 244 247 250 252
77 79 83 89 97 105 115 125 139 153 159 159 157 149 129 132 143 148 156 164 168 174 185 192 189 182 174 166 166 181 193 185 175 169 167 168 171 173 177 180 184 187 183 180 184 186 185 186 187 189 195 197 196 196 197 198 201 203 201 198 199 200 203 206 208 210 213 215 218 221 224 227 230 232 234 236 238 239 238 236 237 238 239 240 242 245 249 253
79 80 82 88 97 108 120 129 140 152 157 156 151 134 126 140 148 150 159 166 171 174 180 190 193 186 177 171 168 178 191 187 175 171 169 169 172 176 179 182 185 184 181 180 183 186 184 185 189 192 195 197 196 195 196 197 201 203 202 201 201 200 202 206 209 210 212 214 216 219 222 224 227 230 233 235 237 236 235 235 235 237 238 238 241 244 249 254
83 84 85 88 95 109 122 130 137 145 147 143 132 117 122 140 144 146 154 163 173 180 179 183 191 189 181 178 176 179 187 187 178 174 171 170 174 176 177 184 188 183 181 182 184 185 185 186 190 192 193 194 194 192 193 196 199 202 203 203 202 201 201 205 209 211 211 213 215 217 220 222 225 230 233 235 237 237 238 238 239 241 241 242 247 251 254 254
90 91 91 96 107 120 128 130 131 133 131 123 117 114 119 135 145 147 152 158 171 182 180 178 185 191 190 188 185 184 187 188 182 177 174 173 175 176 178 185 187 183 183 185 184 183 184 186 191 193 193 194 193 191 193 195 198 202 203 205 206 205 203 204 207 210 212 214 216 218 219 221 223 228 233 234 237 238 239 241 242 244 247 249 251 252 251 248
90 95 103 112 121 125 125 123 119 119 119 116 114 116 122 135 148 156 159 161 168 179 182 180 179 185 193 196 193 190 190 191 187 180 179 179 177 176 180 184 185 184 186 187 184 181 183 187 192 194 195 197 196 194 196 198 200 202 205 206 208 208 207 206 207 210 212 215 218 220 221 222 222 226 231 234 237 239 239 240 241 243 244 245 245 244 241 239
Height
5719 5718 5718 5717 5717 5717 5717 5717 5717 5717 5717 5718 5718 5719 5720 5721 5722 5722 5723 5724 5725 5727 5729 5731 5732 5735 5737 5739 5742 5744 5747 5750 5752 5756 5761 5762 5760 5762 5764 5767 5769 5771 5772 5774 5775 5776 5777 5779 5781 5783 5786 5789 5791 5793 5794 5796 5797 5799 5801 5804 5809 5812 5814 5815 5816 5817 5817 5818 5820 5821 5822 5823 5823 5824 5825 5825 5825 5827 5828 5830 5830 5831 5832 5834 5837 5839 5840 5841
5715 5714 5713 5713 5712 5712 5712 5712 5712 5712 5712 5713 5713 5714 5714 5715 5716 5717 5718 5719 5720 5722 5723 5725 5727 5729 5732 5734 5736 5739 5742 5744 5747 5752 5756 5755 5754 5758 5761 5763 5765 5767 5769 5770 5772 5773 5774 5775 5777 5780 5782 5785 5787 5789 5791 5793 5794 5796 5799 5802 5807 5810 5810 5810 5812 5814 5814 5815 5818 5818 5819 5820 5820 5822 5823 5822 5823 5824 5826 5827 5828 5829 5831 5833 5836 5837 5837 5839
5710 5710 5709 5708 5708 5707 5707 5707 5707 5707 5707 5707 5708 5708 5709 5709 5711 5712 5713 5714 5715 5716 5718 5720 5722 5724 5726 5729 5731 5734 5737 5739 5743 5748 5749 5749 5750 5754 5758 5760 5762 5764 5765 5767 5769 5770 5772 5773 5775 5777 5779 5781 5783 5785 5788 5790 5792 5794 5796 5801 5805 5806 5805 5807 5809 5810 5811 5813 5814 5815 5817 5817 5818 5820 5821 5820 5821 5822 5823 5824 5825 5828 5830 5832 5834 5834 5835 5837
5706 5706 5705 5704 5704 5703 5702 5702 5702 5702 5702 5702 5703 5703 5703 5704 5705 5706 5707 5708 5710 5711 5713 5715 5717 5719 5721 5723 5726 5728 5731 5734 5738 5741 5743 5745 5746 5750 5755 5756 5758 5760 5761 5763 5766 5767 5769 5771 5773 5774 5776 5778 5780 5782 5784 5787 5789 5791 5795 5799 5802 5801 5802 5804 5806 5807 5809 5810 5811 5813 5814 5814 5816 5817 5818 5818 5819 5820 5821 5822 5823 5826 5828 5830 5832 5832 5833 5835
5701 5701 5700 5700 5699 5698 5698 5697 5697 5697 5697 5697 5697 5697 5697 5698 5699 5700 5701 5702 5704 5706 5708 5710 5712 5714 5716 5718 5720 5723 5726 5728 5732 5736 5738 5740 5742 5746 5751 5752 5754 5756 5757 5760 5762 5764 5767 5769 5771 5772 5773 5775 5776 5778 5782 5784 5786 5788 5793 5797 5798 5798 5799 5800 5802 5804 5806 5807 5808 5810 5811 5811 5813 5814 5815 5815 5816 5817 5818 5819 5821 5823 5826 5828 5830 5830 5831 5833
5696 5696 5695 5695 5694 5694 5693 5693 5693 5692 5692 5692 5692 5692 5692 5692 5693 5694 5695 5697 5698 5700 5702 5705 5707 5708 5710 5713 5715 5718 5720 5723 5726 5731 5734 5736 5738 5742 5745 5747 5750 5752 5754 5757 5759 5761 5764 5766 5768 5770 5771 5772 5773 5776 5779 5780 5781 5785 5789 5793 5794 5796 5797 5797 5799 5800 5802 5804 5806 5807 5808 5809 5810 5812 5812 5812 5813 5815 5816 5817 5819 5821 5823 5826 5827 5828 5830 5832
5691 5690 5690 5690 5689 5689 5688 5688 5688 5688 5687 5687 5687 5687 5687 5687 5688 5689 5690 5691 5693 5695 5697 5699 5701 5703 5705 5707 5710 5712 5715 5718 5721 5726 5729 5731 5733 5737 5740 5742 5745 5748 5750 5753 5756 5758 5761 5763 5766 5767 5769 5770 5771 5774 5775 5775 5777 5781 5785 5789 5791 5793 5794 5794 5795 5797 5799 5801 5803 5805 5806 5806 5808 5810 5810 5809 5810 5813 5815 5816 5817 5819 5821 5824 5825 5826 5828 5830
5685 5685 5684 5684 5684 5683 5683 5683 5683 5683 5683 5683 5682 5682 5682 5682 5682 5683 5684 5686 5687 5689 5691 5693 5696 5698 5700 5702 5705 5707 5711 5714 5716 5720 5723 5725 5728 5731 5734 5738 5741 5744 5747 5749 5752 5754 5757 5760 5762 5764 5766 5768 5770 5771 5771 5772 5774 5777 5782 5786 5788 5791 5791 5792 5793 5795 5797 5799 5801 5803 5804 5804 5806 5808 5807 5807 5809 5812 5814 5814 5815 5817 5820 5822 5823 5824 5827 5828
5679 5678 5678 5678 5678 5678 5678 5678 5678 5678 5677 5678 5677 5677 5677 5677 5677 5678 5679 5680 5682 5684 5686 5688 5690 5692 5695 5697 5700 5703 5708 5709 5710 5713 5717 5720 5723 5726 5729 5733 5737 5739 5742 5745 5747 5750 5754 5757 5759 5762 5763 5765 5766 5767 5768 5769 5772 5775 5779 5782 5785 5788 5788 5789 5790 5792 5794 5796 5798 5801 5801 5802 5805 5806 5805 5805 5808 5810 5812 5813 5814 5816 5818 5820 5821 5823 5825 5827
5672 5672 5672 5671 5671 5672 5672 5672 5672 5672 5672 5672 5672 5672 5672 5672 5672 5673 5674 5675 5676 5678 5680 5682 5685 5687 5689 5692 5695 5700 5703 5703 5704 5708 5711 5715 5718 5721 5724 5728 5732 5735 5738 5741 5744 5747 5751 5754 5756 5757 5759 5761 5763 5764 5765 5768 5770 5773 5775 5777 5780 5784 5784 5784 5787 5789 5790 5793 5795 5798 5799 5800 5803 5804 5803 5804 5807 5808 5810 5811 5813 5814 5816 5817 5819 5821 5823 5825
5665 5665 5665 5665 5665 5665 5665 5666 5666 5666 5667 5667 5667 5667 5667 5667 5667 5668 5668 5669 5671 5672 5674 5677 5679 5681 5684 5687 5691 5696 5698 5697 5699 5703 5706 5710 5713 5716 5720 5723 5727 5731 5734 5737 5740 5744 5746 5749 5751 5753 5756 5758 5761 5762 5763 5766 5768 5770 5772 5774 5777 5780 5781 5782 5784 5786 5787 5789 5792 5795 5796 5798 5801 5802 5802 5804 5806 5806 5807 5809 5811 5812 5813 5815 5817 5819 5821 5823
5658 5658 5658 5658 5658 5659 5659 5659 5660 5660 5661 5661 5661 5661 5662 5662 5662 5663 5663 5664 5666 5667 5669 5671 5673 5676 5678 5682 5688 5690 5691 5691 5693 5697 5701 5704 5708 5711 5715 5718 5723 5726 5730 5733 5737 5740 5741 5744 5747 5750 5753 5755 5758 5759 5760 5763 5766 5768 5770 5772 5775 5777 5778 5779 5782 5783 5784 5787 5789 5792 5794 5796 5799 5800 5801 5803 5804 5805 5806 5807 5808 5810 5811 5813 5815 5817 5819 5821
5651 5651 5651 5651 5652 5652 5652 5653 5653 5654 5654 5655 5656 5656 5656 5657 5657 5658 5658 5659 5660 5661 5663 5665 5668 5671 5673 5679 5683 5682 5684 5686 5688 5693 5696 5699 5704 5707 5710 5714 5718 5722 5725 5729 5733 5735 5737 5740 5743 5746 5749 5752 5754 5756 5758 5761 5764 5766 5768 5770 5773 5774 5776 5778 5780 5781 5782 5784 5786 5789 5792 5794 5796 5798 5800 5802 5803 5804 5804 5805 5806 5808 5810 5811 5813 5815 5816 5818
5644 5644 5644 5645 5644 5645 5645 5646 5646 5647 5648 5648 5649 5650 5651 5651 5652 5652 5653 5654 5655 5656 5658 5660 5663 5665 5669 5675 5675 5675 5679 5681 5685 5690 5692 5696 5700 5703 5707 5710 5713 5717 5721 5724 5727 5730 5733 5736 5739 5742 5745 5748 5751 5753 5755 5758 5761 5763 5765 5768 5770 5772 5774 5776 5778 5779 5780 5782 5784 5787 5790 5793 5795 5797 5799 5800 5801 5802 5802 5803 5804 5805 5807 5809 5811 5813 5814 5816
5638 5637 5638 5638 5638 5637 5638 5639 5639 5640 5641 5642 5643 5644 5645 5645 5646 5647 5648 5649 5650 5651 5653 5655 5658 5660 5665 5669 5668 5670 5674 5676 5681 5685 5688 5692 5695 5699 5702 5705 5709 5713 5716 5719 5721 5724 5728 5732 5735 5738 5742 5745 5747 5749 5752 5755 5757 5760 5763 5765 5768 5770 5772 5774 5776 5777 5779 5780 5782 5784 5789 5792 5794 5796 5796 5797 5798 5799 5800 5801 5802 5803 5805 5807 5809 5811 5812 5814
5631 5631 5631 5631 5631 5630 5630 5631 5632 5633 5634 5635 5636 5637 5638 5639 5641 5642 5643 5644 5645 5647 5648 5650 5652 5655 5659 5662 5662 5665 5668 5671 5675 5678 5682 5686 5690 5693 5696 5700 5704 5708 5711 5714 5717 5719 5723 5727 5731 5735 5738 5741 5743 5746 5749 5751 5754 5757 5759 5763 5766 5768 5771 5772 5773 5775 5777 5778 5780 5782 5787 5791 5793 5794 5793 5793 5795 5797 5798 5799 5800 5801 5803 5804 5807 5809 5810 5812
5624 5624 5623 5624 5624 5623 5623 5624 5625 5626 5627 5628 5629 5630 5631 5633 5635 5636 5637 5638 5640 5642 5643 5645 5648 5650 5654 5656 5657 5659 5661 5665 5669 5673 5677 5681 5684 5687 5690 5694 5698 5702 5706 5709 5712 5715 5719 5722 5726 5730 5733 5737 5740 5742 5744 5747 5751 5754 5757 5760 5763 5766 5769 5770 5771 5773 5775 5776 5778 5780 5785 5790 5791 5790 5789 5789 5791 5794 5796 5797 5798 5799 5801 5803 5805 5806 5808 5810
5616 5615 5615 5615 5616 5616 5616 5616 5617 5618 5620 5621 5622 5623 5624 5626 5628 5630 5631 5633 5635 5637 5638 5640 5643 5645 5648 5650 5651 5653 5657 5661 5664 5668 5672 5676 5679 5681 5684 5688 5691 5695 5700 5703 5707 5711 5714 5718 5721 5725 5729 5733 5736 5738 5741 5745 5750 5752 5755 5758 5762 5765 5767 5768 5770 5771 5773 5774 5776 5778 5784 5788 5789 5787 5785 5786 5789 5792 5794 5795 5795 5797 5799 5800 5802 5804 5806 5808
5607 5607 5606 5607 5607 5608 5608 5608 5609 5611 5612 5613 5615 5616 5617 5620 5622 5623 5625 5628 5630 5632 5633 5635 5638 5640 5643 5644 5646 5650 5654 5657 5660 5663 5668 5672 5675 5677 5680 5683 5685 5690 5694 5697 5701 5705 5709 5712 5715 5719 5725 5729 5733 5736 5740 5745 5748 5750 5753 5757 5760 5763 5765 5767 5768 5769 5771 5772 5774 5777 5782 5787 5786 5784 5782 5783 5786 5789 5791 5792 5792 5793 5795 5798 5800 5803 5805 5806
5598 5598 5598 5598 5598 5599 5599 5600 5601 5603 5604 5605 5607 5609 5611 5613 5615 5617 5620 5623 5625 5626 5627 5630 5633 5635 5638 5639 5641 5645 5649 5652 5655 5658 5663 5668 5671 5674 5677 5679 5681 5685 5689 5693 5697 5700 5704 5707 5711 5717 5723 5728 5731 5735 5738 5743 5745 5746 5750 5753 5756 5760 5763 5765 5766 5767 5768 5770 5772 5775 5780 5782 5781 5780 5780 5781 5783 5786 5788 5788 5789 5791 5794 5796 5798 5801 5803 5805
5589 5589 5588 5589 5589 5590 5591 5592 5593 5595 5596 5597 5599 5601 5604 5607 5609 5612 5615 5617 5619 5621 5622 5625 5627 5631 5633 5634 5636 5640 5644 5647 5650 5653 5657 5662 5666 5669 5673 5675 5678 5681 5685 5689 5692 5696 5699 5703 5709 5715 5720 5724 5728 5731 5735 5739 5741 5743 5746 5750 5753 5757 5760 5762 5764 5765 5765 5767 5770 5773 5776 5777 5777 5778 5778 5779 5780 5783 5785 5786 5788 5790 5792 5794 5796 5798 5801 5803
5579 5579 5579 5579 5580 5581 5582 5583 5585 5587 5588 5589 5591 5594 5597 5600 5603 5606 5609 5611 5613 5614 5617 5619 5621 5626 5627 5627 5631 5634 5639 5643 5646 5648 5651 5656 5661 5665 5669 5672 5675 5678 5682 5685 5688 5691 5695 5700 5706 5710 5715 5719 5723 5727 5731 5735 5738 5740 5743 5747 5750 5754 5757 5760 5761 5762 5762 5764 5768 5770 5772 5774 5775 5775 5776 5777 5778 5780 5782 5784 5786 5788 5789 5791 5793 5796 5799 5801
5569 5569 5569 5570 5571 5572 5573 5574 5576 5578 5579 5581 5584 5587 5590 5594 5597 5600 5602 5604 5607 5608 5610 5613 5615 5620 5621 5621 5625 5630 5634 5638 5641 5643 5646 5651 5656 5661 5665 5668 5672 5675 5678 5681 5685 5688 5692 5697 5701 5706 5711 5715 5719 5722 5726 5731 5734 5736 5739 5743 5747 5751 5754 5756 5758 5758 5759 5763 5766 5767 5768 5770 5771 5772 5772 5773 5775 5777 5779 5780 5782 5783 5785 5788 5790 5793 5796 5798
5557 5557 5558 5559 5560 5561 5563 5564 5567 5569 5571 5573 5577 5580 5584 5587 5591 5593 5595 5598 5600 5601 5604 5607 5610 5613 5614 5615 5620 5625 5629 5633 5636 5638 5642 5646 5652 5656 5660 5664 5668 5671 5675 5679 5682 5686 5690 5693 5698 5703 5707 5711 5714 5718 5722 5726 5729 5732 5735 5739 5745 5748 5751 5752 5754 5755 5756 5761 5763 5763 5764 5765 5767 5768 5768 5770 5771 5773 5776 5778 5779 5780 5781 5784 5786 5789 5793 5795
5544 5544 5545 5546 5548 5550 5552 5555 5557 5560 5562 5566 5569 5573 5578 5581 5584 5586 5588 5591 5594 5596 5597 5601 5604 5605 5607 5611 5616 5621 5624 5627 5631 5633 5637 5642 5647 5651 5655 5659 5664 5667 5671 5675 5679 5683 5686 5690 5695 5700 5704 5708 5711 5714 5718 5723 5726 5729 5732 5737 5743 5746 5747 5749 5751 5752 5754 5758 5760 5760 5761 5762 5764 5765 5766 5767 5769 5771 5773 5776 5778 5780 5781 5782 5784 5787 5789 5792
5529 5530 5531 5534 5535 5537 5541 5545 5548 5551 5554 5558 5562 5566 5571 5574 5577 5580 5582 5585 5588 5590 5591 5595 5598 5598 5602 5609 5613 5616 5620 5623 5627 5630 5633 5639 5643 5647 5651 5655 5659 5663 5667 5672 5675 5679 5683 5686 5692 5696 5701 5705 5708 5711 5716 5720 5724 5727 5730 5736 5741 5742 5744 5746 5748 5749 5751 5755 5757 5758 5759 5761 5763 5764 5764 5765 5767 5769 5771 5773 5776 5778 5779 5781 5783 5785 5787 5791
5513 5515 5518 5521 5523 5526 5530 5534 5538 5542 5546 5551 5555 5560 5564 5568 5570 5573 5576 5578 5581 5584 5586 5588 5591 5593 5599 5604 5607 5611 5617 5620 5622 5625 5630 5635 5638 5643 5647 5651 5655 5659 5663 5667 5671 5676 5680 5683 5687 5692 5696 5700 5704 5709 5713 5717 5721 5724 5729 5734 5737 5739 5742 5743 5745 5747 5749 5752 5753 5755 5757 5758 5759 5761 5762 5763 5764 5766 5768 5771 5773 5775 5777 5779 5781 5783 5786 5790
5499 5501 5504 5508 5511 5515 5519 5525 5529 5532 5537 5544 5548 5553 5558 5561 5564 5567 5570 5572 5575 5579 5580 5582 5586 5590 5594 5598 5601 5607 5612 5615 5618 5622 5627 5630 5634 5639 5643 5646 5651 5655 5659 5663 5667 5672 5676 5679 5684 5690 5693 5696 5701 5706 5710 5714 5717 5722 5728 5731 5734 5737 5739 5741 5742 5745 5747 5749 5750 5753 5754 5755 5756 5758 5759 5760 5761 5763 5765 5768 5771 5773 5776 5778 5779 5780 5784 5788
5486 5488 5491 5495 5499 5504 5509 5515 5520 5524 5531 5537 5541 5547 5551 5554 5558 5561 5564 5566 5569 5573 5575 5577 5582 5586 5589 5593 5597 5602 5606 5609 5613 5618 5622 5625 5630 5634 5638 5642 5646 5651 5656 5661 5665 5669 5673 5677 5682 5687 5690 5695 5699 5703 5708 5711 5714 5721 5725 5727 5730 5734 5736 5738 5739 5741 5743 5744 5747 5750 5752 5753 5754 5755 5756 5756 5758 5761 5764 5767 5770 5772 5774 5775 5777 5781 5784 5787
5475 5477 5480 5484 5488 5493 5499 5505 5511 5517 5525 5531 5535 5540 5544 5547 5551 5555 5558 5561 5564 5567 5570 5573 5577 5581 5584 5588 5593 5597 5600 5604 5607 5612 5616 5621 5625 5629 5634 5639 5643 5648 5654 5657 5660 5666 5671 5675 5678 5683 5688 5692 5696 5701 5705 5707 5711 5718 5722 5723 5727 5730 5733 5734 5735 5738 5739 5740 5744 5748 5748 5750 5751 5752 5753 5754 5756 5760 5763 5765 5767 5769 5771 5773 5776 5780 5784 5786
5467 5469 5471 5475 5480 5485 5491 5497 5503 5511 5519 5524 5529 5534 5538 5541 5545 5550 5553 5557 5560 5562 5565 5569 5573 5577 5580 5583 5588 5591 5595 5598 5603 5607 5611 5615 5619 5623 5628 5632 5637 5642 5647 5652 5656 5662 5667 5670 5675 5681 5684 5688 5692 5697 5701 5704 5708 5714 5717 5719 5723 5726 5729 5730 5732 5734 5734 5737 5743 5745 5745 5747 5748 5749 5751 5753 5756 5759 5761 5763 5766 5768 5771 5773 5776 5779 5782 5784
5460 5462 5464 5469 5473 5478 5484 5489 5496 5505 5512 5517 5523 5528 5532 5535 5541 5546 5549 5553 5556 5558 5562 5565 5569 5572 5575 5579 5583 5587 5591 5595 5599 5603 5608 5611 5615 5619 5623 5627 5631 5635 5640 5645 5651 5656 5662 5667 5672 5676 5679 5683 5688 5692 5695 5699 5704 5710 5712 5715 5719 5722 5724 5725 5727 5729 5729 5735 5741 5742 5742 5744 5744 5747 5750 5752 5754 5756 5759 5762 5765 5767 5770 5772 5774 5777 5780 5782
5456 5457 5459 5463 5468 5473 5479 5484 5491 5499 5505 5511 5518 5522 5526 5531 5538 5543 5546 5549 5552 5555 5558 5562 5565 5569 5572 5576 5578 5582 5586 5591 5596 5600 5605 5608 5612 5617 5621 5625 5629 5634 5639 5642 5645 5650 5656 5662 5666 5670 5674 5679 5684 5687 5690 5694 5699 5704 5707 5710 5713 5716 5718 5720 5722 5724 5726 5733 5738 5739 5739 5740 5742 5746 5748 5749 5752 5755 5758 5760 5761 5763 5766 5768 5771 5774 5776 5779
5453 5454 5456 5460 5464 5470 5477 5481 5488 5495 5500 5507 5513 5517 5522 5529 5535 5539 5542 5546 5549 5552 5556 5559 5562 5566 5570 5573 5576 5578 5582 5587 5592 5596 5600 5604 5609 5613 5617 5621 5626 5632 5637 5641 5643 5648 5652 5656 5661 5666 5671 5676 5681 5685 5690 5694 5698 5701 5704 5707 5710 5713 5715 5717 5720 5722 5724 5731 5735 5735 5736 5737 5739 5743 5746 5748 5750 5751 5753 5754 5756 5758 5760 5763 5767 5769 5773 5776
5450 5451 5454 5458 5463 5469 5475 5479 5485 5492 5497 5504 5509 5513 5520 5527 5532 5536 5540 5544 5547 5550 5554 5557 5560 5563 5567 5571 5573 5577 5580 5584 5588 5592 5597 5601 5605 5610 5614 5618 5622 5626 5631 5636 5641 5647 5651 5655 5660 5665 5669 5674 5678 5683 5687 5691 5695 5699 5702 5704 5706 5711 5714 5716 5719 5721 5724 5729 5733 5733 5733 5735 5737 5741 5744 5746 5746 5746 5748 5750 5751 5752 5755 5759 5763 5766 5770 5773
5449 5450 5453 5457 5462 5468 5473 5477 5484 5490 5495 5501 5506 5511 5519 5526 5529 5534 5539 5542 5545 5548 5552 5555 5558 5561 5564 5568 5571 5574 5578 5581 5586 5590 5594 5598 5603 5608 5612 5615 5620 5624 5628 5633 5638 5644 5649 5654 5659 5663 5667 5671 5675 5679 5683 5686 5691 5695 5698 5700 5705 5710 5712 5714 5718 5720 5723 5726 5729 5730 5731 5733 5736 5739 5741 5743 5743 5745 5749 5751 5750 5751 5753 5756 5760 5763 5767 5770
5450 5452 5455 5459 5464 5468 5472 5476 5483 5488 5493 5498 5503 5511 5519 5523 5527 5533 5537 5541 5544 5547 5551 5554 5556 5559 5562 5565 5569 5572 5575 5578 5583 5587 5591 5595 5600 5604 5609 5613 5618 5622 5627 5632 5636 5641 5647 5652 5656 5660 5665 5670 5673 5677 5680 5684 5688 5692 5696 5699 5703 5707 5709 5712 5716 5717 5720 5723 5725 5727 5729 5730 5733 5735 5738 5740 5741 5744 5749 5751 5752 5754 5755 5754 5756 5760 5763 5766
5455 5457 5461 5464 5467 5470 5472 5476 5482 5487 5491 5496 5502 5510 5516 5520 5526 5532 5536 5541 5543 5546 5550 5553 5555 5558 5560 5563 5567 5569 5572 5576 5579 5584 5588 5593 5598 5602 5606 5610 5615 5620 5625 5629 5634 5639 5644 5649 5653 5657 5662 5667 5670 5673 5676 5680 5686 5691 5695 5697 5701 5704 5706 5709 5711 5713 5716 5719 5721 5724 5726 5728 5730 5733 5736 5739 5741 5744 5747 5750 5753 5757 5758 5757 5756 5757 5759 5763
5462 5464 5466 5468 5469 5471 5473 5476 5481 5486 5491 5496 5502 5508 5513 5519 5526 5531 5536 5540 5542 5545 5550 5552 5554 5556 5559 5562 5565 5568 5571 5574 5578 5582 5586 5591 5596 5600 5605 5609 5613 5617 5622 5626 5631 5635 5639 5645 5650 5655 5660 5663 5665 5668 5672 5676 5682 5687 5690 5694 5700 5703 5706 5708 5710 5712 5714 5716 5719 5722 5723 5725 5728 5731 5735 5738 5741 5743 5746 5749 5752 5755 5757 5759 5758 5756 5757 5760
5467 5468 5469 5470 5471 5472 5473 5476 5481 5487 5492 5498 5503 5507 5512 5519 5525 5530 5535 5539 5542 5545 5549 5551 5553 5555 5558 5561 5564 5567 5570 5573 5577 5581 5585 5589 5594 5599 5603 5607 5611 5615 5619 5623 5628 5632 5636 5641 5647 5652 5656 5658 5660 5666 5671 5675 5678 5682 5685 5690 5695 5699 5703 5706 5708 5710 5712 5714 5717 5719 5720 5723 5727 5731 5734 5736 5739 5742 5744 5747 5750 5753 5755 5757 5758 5757 5757 5758
5470 5470 5471 5471 5472 5473 5475 5478 5482 5488 5494 5499 5504 5508 5513 5519 5525 5530 5535 5538 5542 5546 5549 5551 5553 5555 5558 5561 5563 5566 5568 5571 5575 5579 5583 5588 5593 5598 5602 5605 5609 5613 5616 5620 5624 5628 5633 5640 5645 5648 5652 5656 5660 5666 5671 5674 5678 5682 5685 5688 5692 5695 5699 5702 5704 5707 5710 5712 5715 5717 5719 5723 5727 5730 5732 5735 5737 5740 5742 5745 5747 5750 5752 5754 5755 5756 5756 5756
5473 5473 5472 5472 5473 5474 5476 5480 5485 5490 5496 5501 5504 5509 5513 5519 5525 5531 5535 5539 5543 5546 5549 5551 5553 5556 5558 5560 5563 5565 5568 5570 5573 5577 5582 5587 5592 5597 5600 5604 5608 5611 5613 5618 5623 5627 5633 5638 5642 5645 5650 5655 5660 5664 5669 5673 5677 5681 5684 5688 5691 5693 5696 5699 5702 5705 5708 5710 5712 5715 5718 5721 5725 5728 5731 5733 5735 5737 5739 5742 5744 5747 5749 5750 5751 5752 5752 5753
5476 5475 5474 5474 5476 5477 5480 5484 5488 5493 5497 5501 5505 5509 5514 5521 5527 5532 5536 5540 5543 5546 5549 5550 5553 5555 5558 5560 5562 5565 5567 5570 5573 5576 5581 5587 5592 5596 5599 5602 5606 5609 5612 5616 5621 5626 5630 5635 5639 5643 5647 5653 5657 5662 5667 5670 5673 5676 5681 5685 5689 5691 5695 5698 5701 5704 5706 5708 5711 5714 5716 5719 5722 5726 5728 5730 5733 5735 5736 5739 5742 5744 5746 5747 5748 5749 5749 5751
5481 5480 5479 5479 5480 5481 5485 5489 5493 5496 5499 5503 5507 5511 5517 5524 5529 5533 5536 5540 5543 5546 5548 5550 5552 5555 5557 5561 5563 5565 5567 5570 5573 5577 5581 5587 5591 5594 5596 5599 5603 5606 5610 5615 5620 5624 5629 5633 5637 5641 5644 5649 5653 5657 5661 5665 5668 5673 5678 5683 5687 5690 5693 5696 5699 5702 5704 5706 5709 5712 5714 5717 5721 5724 5725 5727 5730 5732 5734 5736 5739 5741 5742 5743 5745 5746 5747 5748
5487 5487 5485 5485 5485 5487 5490 5493 5495 5499 5502 5506 5510 5515 5521 5526 5530 5533 5537 5540 5542 5545 5547 5550 5552 5554 5556 5560 5564 5566 5568 5571 5574 5578 5582 5586 5589 5592 5594 5597 5600 5605 5610 5615 5620 5624 5628 5632 5636 5639 5642 5645 5649 5652 5657 5662 5667 5671 5676 5680 5684 5687 5689 5692 5695 5697 5700 5703 5706 5709 5712 5715 5719 5721 5723 5725 5728 5730 5732 5734 5737 5739 5740 5740 5741 5742 5744 5745
5492 5492 5491 5492 5492 5493 5495 5497 5500 5502 5505 5509 5513 5518 5523 5527 5530 5534 5538 5540 5542 5544 5547 5549 5552 5554 5556 5559 5563 5566 5569 5572 5575 5579 5582 5585 5588 5591 5594 5596 5600 5604 5608 5614 5618 5622 5627 5631 5634 5638 5641 5644 5648 5653 5657 5661 5664 5668 5672 5676 5680 5684 5687 5689 5692 5694 5698 5701 5704 5706 5709 5713 5716 5719 5721 5723 5726 5728 5730 5732 5734 5737 5739 5739 5740 5740 5741 5743
5496 5496 5497 5498 5499 5500 5501 5502 5504 5506 5509 5512 5516 5521 5525 5528 5531 5535 5538 5540 5543 5546 5548 5550 5553 5555 5556 5559 5563 5566 5569 5572 5577 5580 5582 5585 5588 5591 5593 5595 5599 5603 5607 5611 5616 5620 5624 5629 5633 5637 5640 5643 5647 5652 5656 5660 5662 5666 5670 5674 5677 5681 5684 5686 5689 5692 5695 5698 5701 5704 5707 5711 5714 5717 5719 5721 5724 5726 5728 5730 5732 5734 5736 5737 5738 5739 5740 5742
5501 5502 5502 5503 5504 5505 5506 5507 5509 5511 5513 5516 5520 5524 5527 5530 5533 5535 5537 5540 5543 5547 5550 5552 5554 5556 5557 5559 5563 5567 5570 5573 5577 5580 5581 5585 5588 5591 5593 5595 5598 5602 5606 5610 5614 5618 5623 5628 5632 5636 5638 5642 5646 5650 5655 5659 5662 5665 5668 5672 5675 5678 5681 5684 5688 5691 5693 5697 5700 5703 5706 5709 5711 5714 5717 5719 5721 5723 5725 5727 5729 5731 5732 5734 5735 5737 5738 5740
5506 5506 5507 5508 5509 5510 5511 5512 5514 5517 5519 5522 5526 5528 5530 5532 5535 5537 5539 5541 5544 5547 5550 5552 5555 5557 5559 5561 5564 5567 5571 5574 5577 5579 5581 5584 5587 5590 5593 5596 5598 5601 5605 5609 5613 5617 5621 5626 5630 5633 5637 5641 5645 5649 5653 5657 5660 5663 5666 5669 5672 5676 5679 5682 5686 5688 5691 5695 5699 5702 5704 5706 5709 5711 5714 5716 5717 5719 5722 5724 5726 5728 5730 5732 5733 5735 5736 5737
5511 5511 5512 5513 5514 5515 5517 5519 5521 5523 5526 5528 5530 5531 5533 5535 5537 5539 5542 5544 5546 5549 5550 5553 5556 5559 5561 5563 5566 5568 5571 5574 5577 5579 5581 5584 5587 5590 5593 5596 5598 5601 5605 5608 5611 5615 5620 5624 5627 5631 5636 5639 5643 5647 5651 5654 5657 5660 5663 5666 5669 5673 5676 5679 5682 5685 5688 5692 5696 5698 5700 5703 5705 5708 5710 5712 5714 5716 5718 5721 5723 5725 5727 5729 5731 5732 5733 5734
5516 5516 5517 5518 5519 5520 5522 5525 5527 5528 5530 5531 5532 5534 5536 5538 5540 5542 5544 5546 5548 5551 5553 5555 5558 5561 5563 5565 5568 5570 5572 5575 5578 5580 5582 5584 5587 5590 5593 5596 5598 5601 5604 5607 5611 5615 5620 5623 5626 5630 5635 5638 5642 5645 5649 5652 5655 5658 5661 5663 5666 5669 5672 5675 5678 5681 5685 5689 5692 5694 5697 5700 5703 5706 5708 5710 5711 5713 5716 5718 5720 5722 5724 5726 5728 5729 5730 5731
5520 5520 5522 5523 5525 5526 5528 5529 5531 5532 5533 5534 5536 5537 5539 5541 5543 5544 5546 5548 5550 5552 5555 5557 5559 5562 5564 5566 5568 5570 5572 5575 5578 5581 5583 5584 5587 5590 5593 5595 5598 5601 5604 5606 5610 5615 5619 5622 5625 5629 5633 5637 5640 5644 5647 5649 5652 5655 5658 5660 5663 5666 5669 5672 5675 5679 5683 5686 5689 5692 5696 5700 5702 5704 5706 5707 5709 5711 5714 5715 5717 5719 5721 5722 5723 5725 5726 5728